Overview Statistics Trail Chart Weather Telemetry Raw packets
 

This is the latest recevied weather packets stored in our database for station/object IU7URP-17. If no packets are shown the sender has not sent any weather packets the latest 10 day(s).

<< 8 9 10 11 12 13 14 >>
Time Temp. Humidity Pressure Rain* Wind** Luminosity Snow
1788327039 25.56° C 73% 1018.7 hPa - - - -
1788325835 24.44° C 76% 1018.7 hPa - - - -
1788324631 23.33° C 81% 1018.8 hPa - - - -
1788323427 22.22° C 84% 1018.8 hPa - - - -
1788322224 21.67° C 84% 1018.8 hPa - - - -
1788321020 21.67° C 84% 1018.7 hPa - - - -
1788319815 22.22° C 83% 1018.6 hPa - - - -
1788318612 22.22° C 83% 1018.7 hPa - - - -
1788317408 22.22° C 83% 1018.7 hPa - - - -
1788316203 22.22° C 83% 1018.9 hPa - - - -
1788314999 22.22° C 85% 1018.9 hPa - - - -
1788312591 22.22° C 86% 1018.9 hPa - - - -
1788311387 22.78° C 88% 1019.1 hPa - - - -
1788310183 22.78° C 90% 1019.1 hPa - - - -
1788308979 22.78° C 90% 1019.2 hPa - - - -
1788307775 22.78° C 90% 1019.1 hPa - - - -
1788306571 23.33° C 90% 1019.1 hPa - - - -
1788305367 23.33° C 91% 1019 hPa - - - -
1788304163 23.33° C 90% 1019 hPa - - - -
1788302959 23.89° C 89% 1019 hPa - - - -
1788301755 23.89° C 89% 1018.9 hPa - - - -
1788300551 23.89° C 89% 1019 hPa - - - -
1788299347 24.44° C 90% 1018.9 hPa - - - -
1788298142 24.44° C 89% 1018.8 hPa - - - -
1788296938 24.44° C 89% 1018.9 hPa - - - -

* Rain since midnight (hover to see other rain measurements)
** Current wind speed in m/s (hover to see current wind gust speed)